This is the latest recevied weather packets stored in our database for station/object OK2ZI. If no packets are shown the sender has not sent any weather packets the latest 10 day(s).
| Time | Temp. | Humidity | Pressure | Rain* | Wind** | Luminosity | Snow |
|---|---|---|---|---|---|---|---|
| 1778242926 | 16.11° C | 52% | 1014 hPa | 0 mm | - | - | - |
| 1778242448 | 16.67° C | 54% | 1014 hPa | 0 mm | - | - | - |
| 1778242087 | 16.11° C | 55% | 1014 hPa | 0 mm | - | - | - |
| 1778240646 | 15.56° C | 54% | 1014 hPa | 0 mm | - | - | - |
| 1778240527 | 15° C | 55% | 1014 hPa | 0 mm | - | - | - |
| 1778240286 | 15° C | 58% | 1014 hPa | 0 mm | - | - | - |
| 1778240167 | 14.44° C | 58% | 1014 hPa | 0 mm | - | - | - |
| 1778239925 | 15° C | 60% | 1014 hPa | 0 mm | - | - | - |
| 1778239445 | 15° C | 56% | 1014 hPa | 0 mm | - | - | - |
| 1778239211 | 15° C | 55% | 1014 hPa | 0 mm | - | - | - |
| 1778238018 | 14.44° C | 58% | 1014 hPa | 0 mm | - | - | - |
| 1778237527 | 15° C | 57% | 1014 hPa | 0 mm | - | - | - |
| 1778236567 | 14.44° C | 59% | 1014 hPa | 0 mm | - | - | - |
| 1778235612 | 14.44° C | 62% | 1014 hPa | 0 mm | - | - | - |
| 1778235250 | 13.89° C | 63% | 1014 hPa | 0 mm | - | - | - |
| 1778234886 | 14.44° C | 64% | 1014 hPa | 0 mm | - | - | - |
| 1778233687 | 13.89° C | 65% | 1014 hPa | 0 mm | - | - | - |
| 1778233087 | 14.44° C | 61% | 1014 hPa | 0 mm | - | - | - |
| 1778232247 | 13.33° C | 63% | 1014 hPa | 0 mm | - | - | - |
| 1778231287 | 13.33° C | 69% | 1014 hPa | 0 mm | - | - | - |
| 1778230566 | 14.44° C | 61% | 1014 hPa | 0 mm | - | - | - |
| 1778229486 | 12.78° C | 70% | 1014 hPa | 0 mm | - | - | - |
| 1778228527 | 13.33° C | 61% | 1014 hPa | 0 mm | - | - | - |
| 1778227758 | 13.33° C | 69% | 1015 hPa | 0 mm | - | - | - |
| 1778225886 | 11.67° C | 74% | 1014 hPa | 0 mm | - | - | - |
* Rain latest hour (hover to see other rain measurements)
** Current wind speed in m/s (hover to see current wind gust speed)